Retour au catalogue

SL-8 R/B

ActifLEO
NORAD 21108·ROCKET BODY·🇷🇺 Russia

Lancé Feb 12, 1991 depuis Plesetsk Cosmodrome

Loading…

Prochains Passages (prochaines 24 heures)

TLE

FraisSource: Space-Track

Époque: Sep 14, 2026, 22:41 UTC

1 21108U 91009J   26257.94539003  .00000093  00000-0  10114-2 0  9997
2 21108  74.0523 131.0417 0175665 185.2049 211.3353 12.18518390476598

Suivez SL-8 R/B en temps réel avec AllMySat

Download on the App Store